Location: Arezzo
(43.4170°N, 11.8830°E)
Time: 02:33:47
(UTC+01:00)

STARLINK-2709 - Pass Details

Date: 28 October 2021
Orbit: 546 x 548 km, 53.1° (Epoch: 01 December)

Event Time Altitude Azimuth Distance (km) Brightness Sun altitude
Exits shadow 05:13:16 34° 123° (ESE) 919 5.0 -27.6°
Drops below altitude 10° 05:16:41 10° 69° (ENE) 1,818 7.2 -27.0°
Sets 05:19:03 0° 61° (ENE) 2,715 8.2 -26.6°
